Location: Arthez
(43.0833°N, 0.2500°W)
Time: 04:09:35
(UTC+00:00)

Cosmos 304 Rocket - Pass Details

Date: 23 October 2021
Orbit: 678 x 688 km, 74.0° (Epoch: 29 November)

Event Time Altitude Azimuth Distance (km) Brightness Sun altitude
Rises 18:18:54 0° 191° (S) 3,021 7.3 -14.0°
Reaches altitude 10° 18:21:11 10° 188° (S) 2,112 6.4 -14.5°
Maximum altitude 18:25:54 66° 107° (ESE) 742 3.7 -15.3°
Drops below altitude 10° 18:30:39 10° 26° (NNE) 2,133 6.1 -16.2°
Sets 18:32:59 0° 23° (NNE) 3,055 6.9 -16.6°
Enters shadow 18:33:03 - 23° (NNE) 3,085 6.9 -16.6°
